Regional Weather Roundup
Issued by NWS Sterling, VA

Home | Current Version | Previous Version | Text Only | Print | Product List | Glossary On
Versions: 1 2 3 4 5 6 7 8 9 10 11 12 13 14 15 16 17 18 19 20 21 22 23 24 25 26 27 28 29 30 31 32 33 34 35 36 37 38 39 40 41 42 43 44 45 46 47 48 49 50
000
ASUS41 KLWX 241711
RWRLWX

REGIONAL WEATHER ROUNDUP
NATIONAL WEATHER SERVICE BALTIMORE MD/WASHINGTON DC
100 PM EDT WED MAY 24 2017

Note: "FAIR" indicates few or no clouds below 12,000 feet
with no significant weather and/or obstructions to visibility.
 TC=TEMPERATURE CELSIUS

 * =Non NWS site. Station does not report precipitation (e.g. rain,
    snow, etc.), thunder, or fog.

DCZ001-MDZ009-015-VAZ040>042-051-053>054-241800-
WASHINGTON METRO

CITY           SKY/WX    TMP DP  RH WIND       PRES   REMARKS
WASHINGTON NAT CLOUDY    65  57  75 E9        29.73F
DULLES         CLOUDY    63  54  72 E8        29.72F
ANDREWS AFB    CLOUDY    63  56  76 E9        29.71F
FT BELVOIR     CLOUDY    64  56  74 SE7       29.72F
QUANTICO       CLOUDY    64  59  83 E3        29.73F
COLLEGE PARK*  CLOUDY    63  55  75 NE5       29.72F
LEESBURG*      CLOUDY    64  57  77 SE8       29.74F
MANASSAS*      CLOUDY    64  57  78 E6        29.72F
GAITHERSBURG*  CLOUDY    65  57  75 SE7       29.73F

$$

MDZ006>007-011-014-241800-
BALTIMORE METRO

CITY           SKY/WX    TMP DP  RH WIND       PRES   REMARKS
BWI AIRPORT    CLOUDY    63  56  78 E7        29.74F
MD SCIENCE CTR   N/A     65  55  70 MISG      29.75S
MARTIN STATE   CLOUDY    64  59  82 E6        29.77R
ANNAPOLIS      CLOUDY    66  59  78 VRB3      29.72F
FORT MEADE*    CLOUDY    63  55  77 E8        29.76F

$$

MDZ012-015-019>023-241800-
MARYLAND EASTERN SHORE

CITY           SKY/WX    TMP DP  RH WIND       PRES   REMARKS
OCEAN CITY     CLOUDY    60  55  83 NE13      29.75R
SALISBURY      CLOUDY    61  57  87 NE13      29.73S
BAY BRIDGE AP* CLOUDY    66  57  72 NE7       29.73F
CAMBRIDGE*     CLOUDY    63  59  88 E8        29.72F
EASTON*        PTSUNNY   66  57  72 NE9       29.75F

$$

MDZ017>025-241800-
SOUTHERN MARYLAND

CITY           SKY/WX    TMP DP  RH WIND       PRES   REMARKS
PATUXENT RIVER CLOUDY    61  61 100 E7        29.73F
ST INIGOES     CLOUDY    62  59  90 E7        29.72F
LEONARDTOWN*   CLOUDY    61  55  82 E6        29.74F

$$

MDZ003>005-241800-
NORTH CENTRAL MARYLAND

CITY           SKY/WX    TMP DP  RH WIND       PRES   REMARKS
FREDERICK*     CLOUDY    70  57  64 SE9       29.75F
HAGERSTOWN APT CLOUDY    68  53  58 SE8       29.72S
WESTMINSTER*   CLOUDY    70  54  56 SE13      29.74R

$$

MDZ501>502-241800-
WESTERN MARYLAND

CITY           SKY/WX    TMP DP  RH WIND       PRES   REMARKS
OAKLAND*       FOG       50  50 100 SE14G24   29.68F VSB<1/4
CUMBERLAND*    CLOUDY    63  55  77 E3        29.74F

$$

VAZ025>031-241800-
SHENANDOAH VALLEY

CITY           SKY/WX    TMP DP  RH WIND       PRES   REMARKS
WINCHESTER*    CLOUDY    61  54  77 SE8       29.72F
FRONT ROYAL*   CLOUDY    61  55  82 E8        29.70F
LURAY*         CLOUDY    64  55  72 E6        29.70F
NEW MARKET*    CLOUDY    60  57  89 CALM      29.70F
STAUNTON*      CLOUDY    59  54  83 E3        29.72F
WAYNESBORO*    CLOUDY    57  56  98 SE8       29.71F

$$

WVZ021-048>050-054>055-241800-
EASTERN WEST VIRGINIA PANHANDLE

CITY           SKY/WX    TMP DP  RH WIND       PRES   REMARKS
MARTINSBURG    CLOUDY    65  53  65 S9        29.70F
PETERSBURG*    CLOUDY    61  58  88 E3        29.69F

$$

VAZ036>039-050-241800-
CENTRAL FOOTHILLS

CITY           SKY/WX    TMP DP  RH WIND       PRES   REMARKS
CHARLOTTESVILL CLOUDY    62  58  86 E5        29.72S
CULPEPER*      CLOUDY    63  58  86 CALM      29.73F
ORANGE*        CLOUDY    61  57  88 CALM      29.73R
GORDONSVILLE*  CLOUDY    61  59  94 CALM      29.72R
WARRENTON*     CLOUDY    65  56  71 SE6       29.72F

$$

VAZ055>057-241800-
NORTH AND CENTRAL PIEDMONT

CITY           SKY/WX    TMP DP  RH WIND       PRES   REMARKS
FREDERICKSBRG* CLOUDY    63  61  94 E7        29.72S
STAFFORD*      CLOUDY    64  60  88 E5        29.76F

$$

NCZ024-NYZ072-PAZ021-071-VAZ022-071-241800-
OTHER REGIONAL OBSERVATIONS

CITY           SKY/WX    TMP DP  RH WIND       PRES   REMARKS
NEW YORK CITY  CLOUDY    66  51  58 NE12      29.79R
PHILADELPHIA   PTSUNNY   68  52  56 E10       29.75S
PITTSBURGH     LGT RAIN  63  56  78 SE13G21   29.61S
ROANOKE        CLOUDY    59  58  96 SE13      29.70F
RICHMOND       CLOUDY    63  59  87 SE8       29.73R
RALEIGH        CLOUDY    71  66  84 S10       29.69S

$$

ANZ530>537-241800-
MARINE OBSERVATIONS

STATION/POSITION TIME  TEMP    WIND        PRES
                       AIR SEA DIR/SP/G
                 (UTC) (F)     (DEG/KT/KT) (MB)
THOMAS PT LIGHT  1700   60 65   50/  5/  6   N/A
BALT KEY BRIDGE  1648   62     110/  6/  7 1007.3S
COVE POINT       1648   60      90/  4/  6 1007.2F
LEWISETTA        1548   61 66   80/  6/  9 1006.9
SOLOMONS ISLAND  1648   61 67   70/  6/  7   N/A
PINEY POINT      1648          120/  6/  7   N/A

$$




USA.gov is the U.S. government's official web portal to all federal, state and local government web resources and services.